Tracking 28091 objects as of 30-Sep-2023
HD Live streaming from Space Station
objects crossing your sky now

STARLINK-30370

Track STARLINK-30370 now!
10-day predictions
STARLINK-30370 is classified as:


NORAD ID: 57751
Int'l Code: 2023-131V
Perigee: 456.5 km
Apogee: 457.6 km
Inclination: 43.0 °
Period: 93.6 minutes
Semi major axis: 6828 km
RCS: Unknown
Launch date: September 1, 2023
Source: United States (US)
Launch site: AIR FORCE EASTERN TEST RANGE (AFETR)
Your satellite tracking list
Your tracking list is empty




NASA's NSSDC Master Catalog

Two Line Element Set (TLE):
1 57751U 23131V   23273.50001157  .00083549  00000-0  21200-2 0  9997
2 57751  43.0006 335.4409 0000831 282.2755  20.6930 15.38708681  5744
Source of the keplerian elements: AFSPC